This is the latest recevied weather packets stored in our database for station/object XQ6AK-15. If no packets are shown the sender has not sent any weather packets the latest 10 day(s).
| Time | Temp. | Humidity | Pressure | Rain* | Wind** | Luminosity | Snow |
|---|---|---|---|---|---|---|---|
| 1787849184 | 12.78° C | 99% | 1001.5 hPa | 0 mm | - | 320 W/m² | - |
| 1787848884 | 12.22° C | 99% | 1001.7 hPa | 0 mm | - | 577 W/m² | - |
| 1787848579 | 11.67° C | 99% | 1001.7 hPa | 0 mm | - | 496 W/m² | - |
| 1787848279 | 11.67° C | 99% | 1001.8 hPa | 0 mm | - | 281 W/m² | - |
| 1787847979 | 11.67° C | 99% | 1001.8 hPa | 0 mm | - | 219 W/m² | - |
| 1787847678 | 11.67° C | 99% | 1001.8 hPa | 0 mm | - | 327 W/m² | - |
| 1787847373 | 11.11° C | 99% | 1002 hPa | 0 mm | - | 172 W/m² | - |
| 1787847069 | 11.11° C | 99% | 1002 hPa | 0 mm | - | 139 W/m² | - |
| 1787846765 | 10.56° C | 99% | 1002 hPa | 6.1 mm | - | 95 W/m² | - |
| 1787846461 | 10.56° C | 99% | 1002.2 hPa | 7.87 mm | - | 42 W/m² | - |
| 1787846156 | 11.11° C | 99% | 1002.1 hPa | 4.32 mm | - | 70 W/m² | - |
| 1787845851 | 11.11° C | 99% | 1002.2 hPa | 1.27 mm | - | 109 W/m² | - |
| 1787845547 | 11.11° C | 99% | 1002 hPa | 0 mm | - | 137 W/m² | - |
| 1787845241 | 11.11° C | 99% | 1002 hPa | 1.78 mm | - | 241 W/m² | - |
| 1787844937 | 10.56° C | 99% | 1002 hPa | 1.78 mm | - | 135 W/m² | - |
| 1787844632 | 10.56° C | 99% | 1002.3 hPa | 3.05 mm | - | 110 W/m² | - |
| 1787844332 | 11.11° C | 99% | 1002.3 hPa | 3.05 mm | - | 104 W/m² | - |
| 1787844031 | 11.11° C | 99% | 1002.5 hPa | 1.27 mm | - | 60 W/m² | - |
| 1787843726 | 11.11° C | 99% | 1002.5 hPa | 0 mm | - | 49 W/m² | - |
| 1787843421 | 11.11° C | 99% | 1002.6 hPa | 0 mm | - | 136 W/m² | - |
| 1787843118 | 11.11° C | 99% | 1002.6 hPa | 0 mm | - | 81 W/m² | - |
| 1787842813 | 11.11° C | 99% | 1002.5 hPa | 0 mm | - | 165 W/m² | - |
| 1787842508 | 10.56° C | 99% | 1002.5 hPa | 0 mm | - | 313 W/m² | - |
| 1787842207 | 10.56° C | 99% | 1002.7 hPa | 3.56 mm | - | 149 W/m² | - |
| 1787841902 | 10.56° C | 99% | 1002.7 hPa | 3.05 mm | - | 65 W/m² | - |
* Rain latest hour (hover to see other rain measurements)
** Current wind speed in m/s (hover to see current wind gust speed)